www.pogodaiklimat.ru

Погода и климат >> Архив погоды >> Япония >> Tokyo


АРХИВ ПОГОДЫ в Tokyo

Время (UTC), дата Ветер
(напр.,м/с)
 
Видим.   Явления Облачность Т
(С)
Тd
(С)
f
(%)
Тe
(С)
Тes
(С)
Комфортность P
(гПа)
Po
(гПа)
Тmin
(С)
Tmax
(С)
R
(мм)
S
(см)
16 20.03 ЮВ 3 н/о н/о +12.6 +5.3 61 +12 +12 тепло 1016.6 1013.7
17 20.03 Ю 4 н/о н/о +11.8 +7.3 74 +10 +10 тепло 1015.9 1013.0
18 20.03 Ю 3 8000 м слабый дождь 10/9
[Sc As op]
+9.6 +8.5 93 +7 +7 по сезону 1015.9 1012.9 1
19 20.03 З 2 н/о н/о +9.0 +8.6 97 +7 +7 тепло 1014.5 1011.5
20 20.03 ЮЗ 2 н/о н/о +8.9 +8.3 96 +7 +7 по сезону 1014.0 1011.0
21 20.03 З 1 8000 м слабый дождь 10/9
[Sc As op]
+8.6 +8.5 99 +8 +8 по сезону 1013.6 1010.6
22 20.03 ЮЗ 2 н/о н/о +8.7 +8.4 98 +7 +7 тепло 1013.5 1010.5
23 20.03 Ю 2 н/о н/о +8.9 +8.8 99 +7 +7 по сезону 1012.9 1009.9
00 21.03 ЮВ 6 7000 м слабый дождь 10/9
[Cu Sc As op]
+8.9 +8.1 95 +5 +5 прохладно 1012.0 1009.1 +8.5 8
01 21.03 ЮВ 4 н/о н/о +9.2 +8.3 94 +6 +6 по сезону 1010.9 1008.0
02 21.03 ЮВ 5 н/о н/о +9.4 +8.0 91 +6 +6 по сезону 1009.2 1006.3
03 21.03 ЮВ 5 8000 м слабый дождь 10/10 300 м
[Cu Sc]
+10.3 +9.1 92 +7 +7 прохладно 1007.6 1004.7
04 21.03 ЮВ 4 н/о н/о +9.6 +8.0 90 +7 +7 по сезону 1005.4 1002.5
05 21.03 ЮВ 2 н/о н/о +9.9 +9.0 94 +8 +8 по сезону 1003.9 1001.0
06 21.03 СВ 3 4000 м слабый дождь 10/10
[Cu Sc]
+9.6 +9.0 96 +7 +7 прохладно 1002.8 999.9 8
08 21.03 С 2 н/о н/о +9.4 +9.1 98 +7 +7 по сезону 1002.5 999.6
07 21.03 С 3 н/о н/о +9.5 +9.1 97 +7 +7 по сезону 1002.4 999.5
09 21.03 С 3 8000 м слабый дождь 10/10
[Cu Sc]
+9.1 +8.8 98 +7 +7 прохладно 1002.4 999.5
10 21.03 С 3 н/о н/о +8.6 +8.2 97 +6 +6 по сезону 1002.6 999.7
11 21.03 СЗ 4 н/о н/о +8.1 +7.7 97 +5 +5 по сезону 1002.9 1000.0
12 21.03 СЗ 5 10 км слабый дождь 10/10
[Cu Sc]
+7.4 +6.8 96 +3 +3 холодно 1003.2 1000.3 +10.8 17
14 21.03 С 3 н/о н/о +7.2 +6.0 92 +4 +4 по сезону 1002.1 999.2
13 21.03 СЗ 3 н/о н/о +7.2 +6.8 97 +4 +4 по сезону 1002.8 999.9
15 21.03 С 3 н/о н/о +7.0 +5.8 92 +4 +4 прохладно 1002.5 999.6
16 21.03 СЗ 4 н/о н/о +7.4 +4.0 79 +4 +4 по сезону 1002.8 999.9
17 21.03 СЗ 6 н/о н/о +7.3 +3.0 74 +3 +3 по сезону 1003.5 1000.6
18 21.03 СЗ 8 20 км {дождь} 1/1
[Cu hum]
+7.8 +0.5 60 +3 +3 прохладно 1005.1 1002.2 0.5
20 21.03 СЗ 8 н/о н/о +5.9 -2.0 57 +1 +1 по сезону 1007.0 1004.0
19 21.03 СЗ 5 н/о н/о +6.8 -0.9 58 +3 +3 по сезону 1006.3 1003.3
21 21.03 СЗ 8 20 км 1/1
[Sc]
+6.1 -3.3 51 +1 +1 холодно 1008.6 1005.6
22 21.03 СЗ 6 н/о н/о +6.5 -3.4 49 +2 +2 по сезону 1009.9 1006.9
23 21.03 СЗ 7 н/о н/о +8.4 -2.8 45 +5 +5 по сезону 1010.3 1007.4
00 22.03 СЗ 7 25 км ясно +10.0 -2.3 42 +7 +9 по сезону 1011.3 1008.4 +5.7 0.5
02 22.03 СЗ 8 н/о н/о +12.7 -2.4 35 +10 +10 тепло 1011.8 1008.9
01 22.03 СЗ 8 н/о н/о +11.7 -1.4 40 +9 +9 по сезону 1012.0 1009.1
03 22.03 СЗ 7 30 км 1/1
[Cu hum]
+13.4 -2.9 32 +11 +16 по сезону 1012.1 1009.2
04 22.03 СЗ 6 н/о н/о +13.9 -1.7 34 +12 +12 тепло 1011.9 1009.0
05 22.03 СЗ 7 н/о н/о +13.9 -2.5 32 +12 +12 по сезону 1012.1 1009.2
06 22.03 СЗ 7 25 км 1/1
[Cu hum Ac trans Ci fib]
+14.6 -1.9 32 +13 +15 по сезону 1011.9 1009.0
08 22.03 СЗ 6 н/о н/о +11.9 -3.8 33 +10 +10 тепло 1013.5 1010.6
07 22.03 СЗ 5 н/о н/о +13.3 -3.0 32 +12 +12 тепло 1012.6 1009.7
09 22.03 СЗ 5 15 км 3/3
[Cu Sc Ac trans Ci fib]
+10.8 -5.2 32 +9 +9 по сезону 1014.8 1011.9
10 22.03 СЗ 4 н/о н/о +10.0 -4.0 37 +8 +8 тепло 1015.8 1012.9
11 22.03 СЗ 4 н/о н/о +9.0 -4.5 38 +7 +7 по сезону 1016.8 1013.8
12 22.03 С 4 15 км 9/4
[Cu Sc Ac trans Ci sp]
+8.6 -4.2 40 +6 +6 прохладно 1017.4 1014.4 +15.0
13 22.03 СЗ 3 н/о н/о +8.3 -3.8 42 +6 +6 тепло 1017.8 1014.8
14 22.03 СЗ 3 н/о н/о +8.6 -4.2 40 +7 +7 по сезону 1017.5 1014.5
15 22.03 СЗ 2 н/о н/о +8.4 -3.1 44 +7 +7 по сезону 1017.6 1014.6
16 22.03 С 2 н/о н/о +8.0 -4.1 42 +7 +7 тепло 1017.1 1014.1
17 22.03 С 2 н/о н/о +7.6 -3.9 44 +6 +6 по сезону 1016.6 1013.6
18 22.03 С 3 20 км {дождь} 8/4
[Sc Ac trans Ci sp]
+6.9 -3.6 47 +5 +5 по сезону 1016.3 1013.3 0.0
19 22.03 С 2 н/о н/о +6.4 -4.1 47 +5 +5 по сезону 1016.7 1013.7
20 22.03 СЗ 1 н/о н/о +4.5 -3.3 57 +4 +4 по сезону 1016.8 1013.8
21 22.03 СЗ 2 20 км 9/1
[Sc Ac trans Ci sp]
+5.5 -3.6 52 +4 +4 прохладно 1016.8 1013.8
22 22.03 СЗ 2 н/о н/о +7.1 -2.9 49 +6 +6 по сезону 1017.7 1014.7
23 22.03 СЗ 2 н/о н/о +8.7 -2.0 47 +8 +8 по сезону 1018.0 1015.0
00 23.03 СВ 2 25 км 10/1
[Cu hum Ac trans Cs]
+9.4 -2.5 43 +9 +13 по сезону 1017.7 1014.7 +4.3
01 23.03 С 2 н/о н/о +10.6 -1.4 43 +10 +10 тепло 1017.5 1014.6
02 23.03 СЗ 3 н/о н/о +10.8 -3.3 37 +10 +10 по сезону 1017.3 1014.4
03 23.03 СЗ 2 25 км 10/1
[Cu hum Ac trans Cs]
+11.4 -3.5 35 +11 +18 по сезону 1016.2 1013.3
04 23.03 ЮЗ 1 н/о н/о +13.3 -2.6 33 +14 +14 тепло 1015.5 1012.6
05 23.03 С 2 н/о н/о +13.3 -4.8 28 +13 +13 тепло 1014.6 1011.7
06 23.03 СЗ 2 20 км 9/3
[Cu med, cong Ac trans Ci sp]
+14.4 -3.4 29 +14 +17 тепло 1014.1 1011.2
07 23.03 ЮВ 4 н/о н/о +13.0 -1.7 36 +12 +12 тепло 1013.6 1010.7
08 23.03 Ю 3 н/о н/о +12.1 -1.4 39 +11 +11 тепло 1013.7 1010.8
09 23.03 Ю 3 20 км 9/6
[Cu Sc Ac trans Ci sp]
+12.1 -1.1 40 +11 +11 по сезону 1014.0 1011.1
11 23.03 Ю 2 н/о н/о +8.7 +2.9 67 +7 +7 по сезону 1015.8 1012.8
10 23.03 З 3 н/о н/о +11.5 -2.3 38 +10 +10 тепло 1014.6 1011.7
12 23.03 СЗ 2 10 км в посл. час ливневой дождь 9/8
[Cu Sc Ac trans Ci sp]
+9.4 -1.3 47 +8 +8 по сезону 1015.6 1012.6 +15.7
13 23.03 СВ 3 н/о н/о +10.0 +0.6 52 +8 +8 тепло 1015.5 1012.6
14 23.03 СВ 2 н/о н/о +9.0 +0.5 55 +8 +8 по сезону 1015.7 1012.7
15 23.03 СВ 3 н/о н/о +8.3 +2.1 65 +6 +6 по сезону 1015.5 1012.5
17 23.03 СЗ 2 н/о н/о +7.8 -0.2 57 +6 +6 тепло 1015.5 1012.5
16 23.03 СВ 3 н/о н/о +8.0 +1.8 65 +6 +6 по сезону 1015.7 1012.7
18 23.03 С 2 10 км 9/9
[Sc]
+7.5 -2.5 49 +6 +6 по сезону 1015.0 1012.0
19 23.03 СВ 2 н/о н/о +7.4 -1.5 53 +6 +6 тепло 1015.1 1012.1
20 23.03 С 2 н/о н/о +7.3 -0.6 57 +6 +6 по сезону 1015.7 1012.7
21 23.03 С 1 15 км 9/9
[Sc]
+7.2 -1.2 55 +7 +7 по сезону 1016.0 1013.0
23 23.03 СЗ 3 н/о н/о +8.0 -3.5 44 +6 +6 по сезону 1016.2 1013.2
22 23.03 СЗ 3 н/о н/о +7.4 -1.3 54 +5 +5 по сезону 1016.2 1013.2
00 24.03 С 3 30 км 8/8
[Cu Sc]
+10.1 -2.9 40 +8 +10 по сезону 1015.9 1013.0 +6.8
01 24.03 С 4 н/о н/о +11.2 -4.9 32 +10 +10 тепло 1015.2 1012.3
02 24.03 С 5 н/о н/о +12.2 -5.8 28 +11 +11 тепло 1014.6 1011.7
03 24.03 СЗ 6 30 км 3/1
[Cu Sc Ci fib]
+13.0 -5.1 28 +11 +16 по сезону 1014.6 1011.7
05 24.03 СЗ 4 н/о н/о +11.3 -7.0 27 +10 +10 по сезону 1013.7 1010.8
04 24.03 СЗ 7 н/о н/о +12.7 -5.8 27 +10 +10 по сезону 1013.8 1010.9
06 24.03 С 4 30 км 9/1
[Cu Sc Ac As Ci sp]
+11.0 -7.8 26 +9 +12 прохладно 1014.0 1011.1
07 24.03 С 5 н/о н/о +10.3 -8.4 26 +8 +8 по сезону 1014.7 1011.8
08 24.03 СЗ 6 н/о н/о +9.3 -9.7 25 +6 +6 прохладно 1015.7 1012.7
09 24.03 СЗ 5 20 км 9/1
[Cu Sc Ac trans Ci sp]
+8.1 -7.6 32 +5 +5 холодно 1016.4 1013.4
10 24.03 С 5 н/о н/о +7.4 -8.2 32 +4 +4 по сезону 1017.1 1014.1
11 24.03 С 5 н/о н/о +6.6 -7.0 37 +3 +3 прохладно 1018.4 1015.4
12 24.03 С 4 20 км 1/1
[Cu hum Ac trans]
+5.8 -6.1 42 +3 +3 холодно 1019.1 1016.1 +13.9
13 24.03 С 3 н/о н/о +5.4 -5.6 45 +3 +3 по сезону 1019.6 1016.6
14 24.03 С 3 н/о н/о +5.4 -4.2 50 +3 +3 по сезону 1019.5 1016.5
15 24.03 С 3 н/о н/о +4.7 -4.3 52 +2 +2 холодно 1019.3 1016.3
16 24.03 С 3 н/о н/о +4.7 -4.8 50 +2 +2 по сезону 1019.2 1016.2
17 24.03 С 3 н/о н/о +4.8 -5.0 49 +2 +2 по сезону 1019.0 1016.0
18 24.03 С 4 20 км 9/0
[Ac trans Ci sp]
+4.8 -5.3 48 +2 +2 прохладно 1019.1 1016.1
19 24.03 СЗ 2 н/о н/о +4.7 -4.6 51 +3 +3 по сезону 1019.6 1016.6
20 24.03 С 3 н/о н/о +4.2 -4.8 52 +1 +1 прохладно 1019.9 1016.9
21 24.03 СВ 3 30 км 1/1
[Sc Ci fib]
+3.7 -4.5 55 +1 +1 холодно 1020.6 1017.6
22 24.03 С 3 н/о н/о +4.8 -4.0 53 +2 +2 по сезону 1021.3 1018.3
23 24.03 С 3 н/о н/о +6.8 -3.7 47 +4 +4 по сезону 1021.7 1018.7
00 25.03 С 3 30 км 9/0
[Ci fib]
+7.5 -4.6 42 +6 +13 по сезону 1021.6 1018.6 +3.4
01 25.03 В 2 н/о н/о +8.3 -6.6 34 +8 +8 по сезону 1021.8 1018.8
02 25.03 ЮВ 2 н/о н/о +9.4 -6.9 31 +8 +8 по сезону 1021.2 1018.2
03 25.03 ЮВ 4 25 км 9/0
[Ci fib]
+10.7 -4.1 35 +9 +19 опасность
простуды
1020.5 1017.5
04 25.03 Ю 3 н/о н/о +11.1 -5.0 32 +10 +10 по сезону 1019.6 1016.7
05 25.03 Ю 5 н/о н/о +11.5 -5.0 31 +10 +10 по сезону 1019.1 1016.2
06 25.03 ЮВ 4 20 км 9/1
[Cu hum Ci sp]
+11.2 -4.9 32 +9 +13 прохладно 1019.0 1016.1
08 25.03 ЮВ 3 н/о н/о +9.9 -1.8 44 +8 +8 по сезону 1019.5 1016.5
07 25.03 ЮВ 4 н/о н/о +11.4 -2.4 38 +10 +10 по сезону 1019.1 1016.2
09 25.03 ЮВ 5 20 км 8/1
[Cu Sc Ci sp]
+8.7 -1.7 48 +6 +6 прохладно 1020.2 1017.2
10 25.03 ЮВ 3 н/о н/о +8.6 -1.0 51 +6 +6 по сезону 1020.8 1017.8
11 25.03 В 3 н/о н/о +8.5 -1.9 48 +6 +6 по сезону 1021.6 1018.6
12 25.03 В 4 20 км 9/1
[Sc Ac trans Ci sp]
+8.4 -2.8 45 +6 +6 прохладно 1021.9 1018.9 +12.7
14 25.03 В 2 н/о н/о +7.8 -1.7 51 +7 +7 тепло 1021.2 1018.2
13 25.03 СВ 3 н/о н/о +7.7 -2.1 50 +6 +6 по сезону 1021.8 1018.8
15 25.03 СВ 3 н/о н/о +7.9 -1.3 52 +6 +6 по сезону 1020.7 1017.7
16 25.03 В 3 н/о н/о +7.8 -0.7 55 +6 +6 тепло 1020.3 1017.3
17 25.03 СВ 2 н/о н/о +7.6 +0.1 59 +6 +6 по сезону 1020.5 1017.5
18 25.03 СЗ 3 20 км слабый дождь 10/5
[Sc Ac As]
+6.3 +1.8 73 +3 +3 прохладно 1020.1 1017.1 0.0
20 25.03 СЗ 3 н/о н/о +4.9 +3.7 92 +1 +1 по сезону 1020.5 1017.5
19 25.03 СЗ 2 н/о н/о +5.9 +2.0 76 +4 +4 по сезону 1020.5 1017.5
21 25.03 СЗ 3 10 км слабый дождь 10/1
[Frnb As op]
+4.9 +4.0 94 +2 +2 холодно 1020.7 1017.7
22 25.03 СЗ 2 н/о н/о +5.3 +4.6 95 +3 +3 по сезону 1020.8 1017.8
23 25.03 СЗ 3 н/о н/о +5.4 +4.4 93 +2 +2 прохладно 1021.0 1018.0
00 26.03 СЗ 3 10 км слабый дождь 10/9 300 м
[Sc As op]
+5.3 +4.3 93 +2 +2 холодно 1020.8 1017.8 +4.8 3
02 26.03 СЗ 4 н/о н/о +5.4 +4.7 95 +1 +1 холодно 1020.1 1017.1
01 26.03 СЗ 4 н/о н/о +5.7 +5.0 95 +2 +2 холодно 1020.7 1017.7
03 26.03 СЗ 3 5000 м слабый дождь 10/9
[Sc As op]
+5.5 +4.9 96 +2 +3 очень
холодно
1019.4 1016.4
04 26.03 СЗ 3 н/о н/о +5.7 +5.3 97 +2 +2 холодно 1018.9 1015.9
05 26.03 СЗ 3 н/о н/о +5.9 +5.5 97 +2 +2 очень
холодно
1017.9 1014.9
06 26.03 СЗ 3 4000 м слабый дождь 10/9
[Sc As op]
+6.1 +5.5 96 +3 +3 очень
холодно
1017.3 1014.3 3
08 26.03 С 3 н/о н/о +6.5 +6.1 97 +3 +3 прохладно 1016.3 1013.3
07 26.03 С 2 н/о н/о +6.4 +6.0 97 +4 +4 холодно 1016.7 1013.7
09 26.03 С 2 4000 м слабый дождь 10/9
[Sc As op]
+6.5 +6.2 98 +4 +4 холодно 1016.3 1013.3
10 26.03 СЗ 4 н/о н/о +6.2 +5.9 98 +2 +2 прохладно 1016.5 1013.5
11 26.03 СЗ 3 н/о н/о +6.1 +6.0 99 +3 +3 прохладно 1015.9 1012.9
12 26.03 СЗ 3 4000 м слабый дождь 10/10
[Sc]
+6.1 +5.8 98 +3 +3 холодно 1015.4 1012.4 +6.7 8
13 26.03 СЗ 3 н/о н/о +6.0 +5.7 98 +3 +3 по сезону 1014.8 1011.8
14 26.03 СЗ 3 н/о н/о +5.8 +5.7 99 +2 +2 прохладно 1013.8 1010.8
15 26.03 СЗ 4 н/о н/о +5.4 +5.3 99 +1 +1 холодно 1012.4 1009.4
16 26.03 СЗ 4 н/о н/о +5.3 +5.0 98 +1 +1 по сезону 1011.7 1008.7
17 26.03 С 3 н/о н/о +5.1 +4.8 98 +1 +1 прохладно 1010.6 1007.6
18 26.03 СЗ 6 4000 м дождь 10/9
[Frnb As op]
+4.7 +4.4 98 -1 -1 очень
холодно
1009.8 1006.8 7
19 26.03 СЗ 5 н/о н/о +4.2 +3.8 97 -1 -1 прохладно 1009.1 1006.1
20 26.03 С 5 н/о н/о +3.4 +3.0 97 -2 -2 холодно 1009.1 1006.1
21 26.03 СЗ 5 4000 м слабый ливневой дождь 10/10
[Cu med, cong]
+2.8 +2.4 97 -3 -3 очень
холодно
1009.6 1006.6
22 26.03 СЗ 6 н/о н/о +2.9 +2.5 97 -3 -3 холодно 1009.4 1006.4
23 26.03 СЗ 5 н/о н/о +2.4 +2.0 97 -3 -3 очень
холодно
1009.1 1006.1
00 27.03 С 4 6000 м слабый ливневой дождь 10/8
[Cu Sc Ac As]
+3.5 +3.1 97 -1 -1 очень
холодно
1008.4 1005.4 +2.4 20
01 27.03 С 4 н/о н/о +4.5 +4.1 97 0 0 холодно 1008.2 1005.2
02 27.03 СЗ 5 н/о н/о +5.1 +4.7 97 0 0 очень
холодно
1008.2 1005.2
03 27.03 СЗ 5 15 км слабый ливневой дождь 9/9
[Cu med, cong]
+5.0 +4.1 94 0 +1 очень
холодно
1008.6 1005.6
04 27.03 СЗ 5 н/о н/о +5.8 +4.9 94 +1 +1 очень
холодно
1008.8 1005.8
05 27.03 СЗ 4 н/о н/о +7.2 +6.0 92 +3 +3 очень
холодно
1008.3 1005.3
06 27.03 С 3 20 км в посл. час ливневой дождь 9/3
[Cu med, cong Ac As]
+7.7 +3.9 77 +5 +7 очень
холодно
1008.4 1005.4 5
07 27.03 СВ 4 н/о н/о +7.4 +4.0 79 +4 +4 прохладно 1009.1 1006.1
08 27.03 С 4 н/о н/о +7.7 +3.9 77 +5 +5 прохладно 1009.7 1006.7
09 27.03 С 2 20 км 5/1
[Cu hum Ac trans Cs]
+7.0 +2.9 75 +5 +5 холодно 1010.7 1007.7
11 27.03 СВ 1 н/о н/о +5.8 +2.8 81 +5 +5 по сезону 1012.8 1009.8
10 27.03 СВ 2 н/о н/о +6.1 +2.6 78 +4 +4 прохладно 1011.6 1008.6
12 27.03 С 2 20 км 4/1
[Cu hum Ac trans Cs]
+5.0 +2.5 84 +3 +3 холодно 1013.5 1010.5 +8.3 5
13 27.03 С 1 н/о н/о +4.1 +2.1 87 +3 +3 по сезону 1013.9 1010.9
14 27.03 С 1 н/о н/о +3.8 +2.5 91 +2 +2 прохладно 1014.3 1011.3
15 27.03 В 1 н/о н/о +3.5 +2.6 94 +2 +2 холодно 1014.4 1011.4

 

Местоположение метеостанции Tokyo (Япония): широта 35.68 долгота 139.76 высота над уровнем моря 36 м.

В архиве по умолчанию представлена погода в Tokyo за последнюю неделю. Архивные данные за месяц целиком и за предыдущие месяцы, начиная с января 2011 года, Вы можете получить, выбрав интересующий диапазон дат из раскрывающегося списка и нажав кнопку "Ввод!".

Внимание! Время в таблицах - всемирное. Для получения местного времени необходимо прибавить поправку, которая в Tokyo равна 9 ч.

Смотрите также архив погоды в соседних городах и на ближайших метеорологических станциях:

Погода в Yokohama (Япония) (30 км)
Погода в Chiba (Япония) (32 км)
Погода в Kumagaya (Япония) (62 км)
Погода в Chichibu (Япония) (71 км)
Погода в Katsuura (Япония) (77 км)
Погода в Tateyama (Япония) (78 км)
Погода в Ajiro (Япония) (92 км)
Погода в Kawaguchiko (Япония) (93 км)
Погода в Utsunomiya (Япония) (97 км)
Погода в Mishima (Япония) (98 км)

Пояснения к столбцам:

Ветер - указаны скорость ветра в м/с - средняя за 10 мин, порывы в срок и между сроками (в фигурных скобках) и направление, откуда дует ветер: С - северный, СВ - северо-восточный, В - восточный, ЮВ - юго-восточный, Ю - южный, ЮЗ - юго-западный, З - западный, СЗ - северо-западный.
Видимость - горизонтальная дальность видимости в метрах или километрах. При видимости от 1 до 10 км при отсутствии осадков обычно наблюдается дымка, при ухудшении видимости до 1 км и менее - туман. В сухую погоду видимость может ухудшаться дымом, пылью или мглою.
Явления - указаны атмосферные явления, наблюдавшиеся в срок или в последний час перед сроком; фигурными скобками обозначены явления, наблюдавшиеся между сроками (за 1-3 часа до срока); квадратными скобками обозначены град или гололедные отложения с указанием их диаметра в мм.
Облачность - указаны через наклонную черту общая и нижняя облачность в баллах и высота нижней границы облаков в метрах; квадратными скобками обозначены формы облаков: Ci - перистые, Cs - перисто-слоистые, Cc - перисто-кучевые, Ac - высококучевые, As - высокослоистые, Sc - слоисто-кучевые, Ns - слоисто-дождевые, Cu - кучевые, Cb - кучево-дождевые. Подробнее классификацию облаков см. в Атласе облаков (PDF).
T - Температура воздуха - температура, измеренная на высоте 2 м над землей.
Td - Температура точки росы - температура, при понижении до которой содержащийся в воздухе водяной пар достигнет насыщения.
f - Относительная влажность воздуха - влажноcть воздуха, измеренная на высоте 2 м над землей.
Te - Эффективная температура - температура, которую ощущает одетый по сезону человек в тени. Характеристика душности погоды. При расчете учитывается влияние влажности воздуха и скорости ветра на теплоощущения человека.
Tes - Эффективная температура на солнце - температура, которую ощущает человек, с поправкой на солнечный нагрев. Характеристика знойности погоды. Зависит от высоты солнца над горизонтом, облачности и скорости ветра. Ночью, в пасмурную погоду, а также при ветре 12 м/с и более поправка равна нулю.
P - Атмосферное давление - приведенное к уровню моря атмосферное давление.
Po - Атмосферное давление - измеренное на уровне метеостанции атмосферное давление.
Tmin - Минимальная температура - минимум температуры воздуха на высоте 2 м над землей.
Tmax - Максимальная температура - максимум температуры воздуха на высоте 2 м над землей.
R - Количество осадков - Количество выпавших осадков, мм. При наведении курсора мыши на число - период времени, за который выпало указанное количество осадков.
S - Снежный покров - Высота снежного покрова, см. При наведении курсора мыши на число - состояние снежного покрова и степень покрытия местности в баллах.